Date,TemperatureHighF,TemperatureAvgF,TemperatureLowF,DewpointHighF,DewpointAvgF,DewpointLowF,HumidityHigh,HumidityAvg,HumidityLow,PressureMaxIn,PressureMinIn,WindSpeedMaxMPH,WindSpeedAvgMPH,GustSpeedMaxMPH,PrecipitationSumIn
2013-1-1,50,44,40,49,42,35,97,91,83,30.34,30.09,13,2,13,0.51
2013-1-2,40,37,31,35,32,28,93,83,75,30.43,30.33,9,1,9,0.00
2013-1-3,51,38,22,36,30,21,96,76,48,30.54,30.42,10,1,10,0.00
2013-1-4,50,44,39,40,36,30,93,77,46,30.62,30.46,9,1,9,0.05
2013-1-5,55,44,33,42,39,31,96,85,59,30.48,30.32,12,0,12,0.01
2013-1-6,58,39,28,43,33,26,97,84,38,30.47,30.37,10,1,10,0.01
2013-1-7,56,40,23,40,33,22,96,77,45,30.44,30.20,12,1,12,0.00
2013-1-8,59,52,44,58,50,38,97,93,77,30.21,29.99,12,2,12,0.70
2013-1-9,62,60,57,62,59,56,98,98,97,30.15,30.00,21,3,21,2.88
2013-1-10,63,56,42,62,52,40,98,86,61,30.09,30.01,15,2,15,0.08
2013-1-11,74,59,45,61,51,43,95,76,40,30.08,29.90,16,3,16,0.01
2013-1-12,72,62,40,69,61,37,98,94,73,29.94,29.73,20,3,20,0.42
2013-1-13,47,39,32,38,33,26,93,79,58,30.32,29.94,17,3,17,0.18
2013-1-14,45,35,30,33,28,25,89,77,62,30.37,30.26,12,2,12,0.00
2013-1-15,36,33,31,33,29,26,96,85,70,30.31,30.21,10,2,12,0.23
2013-1-16,47,35,25,33,27,22,95,75,41,30.40,30.27,10,1,10,0.00
2013-1-17,61,40,23,40,31,22,96,77,40,30.58,30.35,13,1,13,0.00
2013-1-18,62,43,26,40,34,25,97,73,40,30.61,30.41,12,1,12,0.00
2013-1-19,64,48,33,47,40,30,96,75,50,30.41,30.26,11,1,11,0.00
2013-1-20,69,52,40,54,46,38,97,82,49,30.33,30.16,16,1,16,0.00
2013-1-21,62,49,36,50,44,35,97,85,56,30.33,30.21,10,1,10,0.01
2013-1-22,67,51,34,52,44,33,97,80,53,30.42,30.28,10,1,10,0.00
2013-1-23,74,60,44,58,53,42,97,77,50,30.40,30.24,13,2,13,0.00
2013-1-24,75,65,58,64,60,56,96,86,66,30.31,30.13,13,2,13,0.00
2013-1-25,72,62,51,63,57,48,92,85,70,30.23,30.12,15,2,15,0.00
2013-1-26,55,53,51,54,52,50,98,96,91,30.28,30.19,9,1,9,0.02
2013-1-27,77,64,55,65,61,54,98,89,61,30.19,30.05,19,4,19,0.00
2013-1-28,80,71,66,68,64,60,94,79,57,30.13,29.95,20,4,20,0.00
2013-1-29,78,68,52,68,64,49,95,86,57,29.96,29.56,27,4,27,0.35
2013-1-30,54,45,30,49,33,24,95,66,33,30.25,29.80,22,3,22,0.14
2013-1-31,65,47,28,30,27,20,95,52,19,30.35,30.24,15,2,15,0.00
2013-2-1,68,51,33,41,36,28,92,60,32,30.45,30.27,12,1,12,0.00
2013-2-2,71,54,36,55,45,34,93,73,51,30.38,30.25,14,2,14,0.00
2013-2-3,71,51,32,52,34,28,97,61,22,30.40,30.11,11,1,11,0.00
2013-2-4,69,58,50,60,50,33,96,74,42,30.11,29.89,13,2,13,0.00
2013-2-5,73,63,56,65,60,54,98,90,68,30.07,29.95,11,2,11,0.01
2013-2-6,65,62,59,63,60,57,96,94,91,30.10,29.96,11,2,11,0.24
2013-2-7,69,61,55,61,58,52,96,90,74,30.11,29.92,13,2,13,0.01
2013-2-8,66,55,44,52,47,41,92,76,53,30.30,30.11,13,2,13,0.00
2013-2-9,62,52,42,61,50,41,96,94,87,30.23,29.88,16,3,16,0.04
2013-2-10,66,60,51,65,49,34,97,72,33,30.08,29.75,15,2,15,2.06
2013-2-11,58,52,48,49,47,43,95,84,64,30.22,30.06,10,1,10,0.29
2013-2-12,55,50,46,52,48,44,97,93,88,30.08,29.91,11,1,11,0.36
2013-2-13,53,43,34,45,38,33,96,83,63,30.24,30.05,20,2,20,0.01
2013-2-14,38,36,33,36,34,32,94,93,91,30.17,30.16,2,0,2,0.00
2013-2-16,56,46,35,35,29,26,80,54,33,30.52,30.30,14,2,14,0.00
2013-2-17,70,55,38,46,36,29,77,51,25,30.30,30.06,22,4,22,0.00
2013-2-18,78,63,49,63,50,37,83,66,36,30.17,29.84,22,4,22,0.00
2013-2-19,65,51,31,39,30,20,95,51,19,30.38,30.17,14,2,14,0.00
2013-2-20,54,51,48,39,35,31,67,56,43,30.24,29.85,18,4,18,0.00
2013-2-21,72,56,40,62,45,30,97,71,22,29.97,29.72,20,4,20,0.14
2013-2-22,56,46,39,40,36,31,87,68,46,30.16,29.94,14,2,14,0.00
2013-2-23,59,43,30,41,34,28,93,71,44,30.14,30.01,14,1,14,0.00
2013-2-24,70,53,30,48,42,29,97,68,37,30.04,29.74,15,3,15,0.00
2013-2-25,66,56,43,58,41,27,92,60,25,29.76,29.56,29,6,29,0.01
2013-2-26,59,46,33,38,34,30,93,65,41,30.00,29.75,19,4,19,0.00
2013-2-27,60,47,30,40,31,21,96,60,25,30.28,29.98,17,2,17,0.00
2013-2-28,57,43,32,34,30,26,92,62,34,30.39,30.24,15,2,15,0.00
2013-3-1,56,42,26,35,30,24,95,68,35,30.38,30.26,14,1,14,0.00
2013-3-2,52,39,29,32,26,22,89,62,32,30.49,30.34,15,2,15,0.00
2013-3-3,69,51,28,45,32,24,90,53,26,30.34,29.98,19,4,19,0.00
2013-3-4,77,66,55,59,53,45,84,65,43,29.98,29.73,23,5,23,0.00
2013-3-5,64,52,32,59,34,22,88,56,26,30.42,29.77,20,4,20,0.00
2013-3-6,63,44,26,39,27,17,90,56,18,30.54,30.31,11,1,11,0.00
2013-3-7,70,54,34,45,34,24,76,51,25,30.36,30.21,15,3,15,0.00
2013-3-8,67,59,49,58,52,43,83,76,69,30.30,30.11,14,3,14,0.00
2013-3-9,75,66,59,63,60,54,91,81,67,30.11,29.77,19,5,19,0.00
2013-3-10,66,59,55,62,51,39,94,77,46,30.00,29.74,16,4,16,0.62
2013-3-12,48,45,42,38,35,34,74,69,59,30.37,30.28,0,0,0,0.00
2013-3-13,72,52,33,47,36,31,95,61,24,30.53,30.37,12,1,12,0.00
2013-3-14,76,66,49,49,45,35,69,48,33,30.43,30.28,14,2,14,0.00
2013-3-15,79,71,56,56,49,43,74,47,28,30.30,30.04,16,4,16,0.00
2013-3-16,81,69,59,61,57,53,90,68,43,30.04,29.80,21,5,21,0.00
2013-3-17,79,69,62,64,62,58,90,78,57,29.87,29.72,16,3,16,0.00
2013-3-18,82,60,57,67,40,-100,91,65,51,30.05,29.76,15,2,15,0.00
2013-3-19,74,60,44,54,47,41,92,65,44,30.17,30.00,14,2,14,0.04
2013-3-20,71,55,41,50,41,28,97,66,21,30.34,30.11,13,1,13,0.15
2013-3-21,72,59,41,58,46,36,89,63,41,30.12,29.70,21,4,21,0.00
2013-3-22,80,66,51,66,59,48,91,79,55,29.89,29.67,11,3,14,0.00
2013-3-23,56,53,49,55,51,47,97,94,91,29.89,29.73,9,1,9,0.14
2013-3-24,56,47,31,55,36,28,97,67,41,30.25,29.74,22,4,22,0.01
2013-3-25,57,42,29,30,26,22,92,58,30,30.50,30.25,16,2,16,0.00
2013-3-26,59,40,22,32,26,20,95,63,30,30.60,30.42,11,1,11,0.00
2013-3-27,70,53,30,44,34,26,87,51,28,30.45,30.22,15,3,15,0.00
2013-3-28,71,61,51,59,52,44,83,74,63,30.33,30.20,15,3,15,0.00
2013-3-29,73,67,59,60,59,55,86,76,63,30.26,30.16,10,2,10,0.00
2013-3-30,79,69,60,65,62,58,97,78,56,30.17,29.97,16,2,16,0.73
2013-3-31,76,67,-41,67,62,-53,95,83,62,30.05,29.91,15,2,15,0.19
2013-4-1,79,48,49,64,22,-100,98,67,52,30.14,29.99,10,1,10,0.00
2013-4-2,76,67,59,64,61,57,96,83,64,30.09,29.94,14,2,14,0.00
2013-4-3,64,51,48,60,47,45,95,89,80,30.19,29.96,16,2,16,0.15
2013-4-4,50,47,43,45,43,41,94,87,76,30.28,30.15,12,2,12,0.01
2013-4-5,72,54,36,54,45,35,97,75,44,30.34,30.14,7,1,7,0.00
2013-4-6,76,64,52,59,53,47,86,70,47,30.15,29.94,18,3,18,0.00
2013-4-7,76,67,58,64,60,56,94,79,64,30.02,29.84,18,4,18,0.00
2013-4-8,79,70,62,66,63,59,93,78,63,29.90,29.77,21,4,21,0.00
2013-4-9,83,63,67,69,42,-100,91,68,57,29.81,29.71,21,5,21,0.00
2013-4-10,74,54,42,70,51,40,95,91,77,30.00,29.74,16,3,16,0.37
2013-4-11,64,49,38,49,40,34,95,74,48,30.09,29.89,13,2,13,0.00
2013-4-12,78,55,37,50,40,-100,97,67,30,30.09,29.96,8,1,8,0.00
2013-4-13,79,63,45,57,49,42,93,65,36,30.07,29.85,16,2,16,0.00
2013-4-14,81,66,47,67,59,45,97,79,59,29.88,29.67,15,2,15,0.00
2013-4-15,83,59,69,70,35,-100,91,67,60,29.86,29.72,18,0,18,0.00
2013-4-16,88,70,71,72,53,-100,88,69,52,29.97,29.85,28,3,28,0.00
2013-4-17,85,77,72,71,70,69,95,81,61,29.97,29.77,26,5,26,0.03
2013-4-18,55,51,47,46,43,39,79,75,71,30.19,29.99,13,2,13,1.23
2013-4-19,62,47,33,41,35,31,96,67,33,30.36,30.19,15,2,15,0.00
2013-4-20,71,54,36,42,37,32,94,58,27,30.31,30.12,16,2,16,0.00
2013-4-21,74,58,40,56,47,39,96,71,43,30.28,30.13,13,1,13,0.00
2013-4-22,78,64,45,61,54,43,97,73,53,30.19,29.95,15,2,15,0.00
2013-4-23,78,61,47,67,56,43,94,85,62,30.17,29.93,13,3,13,0.01
2013-4-24,64,54,44,50,46,41,92,75,49,30.34,30.17,10,1,10,0.02
2013-4-25,74,61,52,51,48,42,91,65,33,30.42,30.25,13,2,13,0.00
2013-4-26,81,69,59,68,58,43,87,69,54,30.27,30.03,15,3,15,0.00
2013-4-27,83,72,65,72,66,60,95,80,64,30.13,30.01,11,2,11,0.00
2013-4-28,86,62,55,68,41,-100,97,64,48,30.10,29.92,21,1,21,0.00
2013-4-29,84,33,65,69,-31,-100,96,26,42,30.01,29.86,12,1,12,0.00
2013-4-30,82,48,57,72,11,-100,97,56,58,29.92,29.80,12,1,12,0.07
2013-5-1,85,68,61,70,60,-100,97,84,55,30.00,29.86,8,1,8,0.00
2013-5-2,65,55,43,64,52,40,97,89,77,30.34,29.99,19,3,19,0.03
2013-5-3,66,51,38,40,36,28,89,61,25,30.34,30.13,18,3,18,0.00
2013-5-4,77,58,38,41,37,33,88,51,21,30.13,29.94,17,2,17,0.00
2013-5-5,68,54,40,47,43,37,94,68,46,30.21,30.07,14,2,14,0.00
2013-5-6,77,60,41,58,51,40,97,75,45,30.19,30.06,11,1,11,0.00
2013-5-7,86,70,52,63,56,51,97,67,36,30.14,30.00,12,1,12,0.00
2013-5-8,86,73,59,64,59,54,89,64,43,30.09,29.95,14,3,14,0.00
2013-5-9,74,68,64,70,65,61,97,90,74,30.06,29.88,11,2,11,0.11
2013-5-10,83,71,64,70,67,63,98,88,61,30.08,29.90,9,0,9,0.02
2013-5-11,80,69,52,65,57,49,97,70,37,30.20,30.00,14,1,14,0.00
2013-5-12,79,63,47,54,49,40,97,66,28,30.31,30.19,10,1,10,0.00
2013-5-13,86,66,44,55,48,41,96,61,24,30.34,30.21,12,1,12,0.00
2013-5-14,85,72,55,64,57,52,95,63,32,30.26,30.08,16,2,16,0.00
2013-5-15,72,70,67,69,67,64,96,90,77,30.15,29.89,15,3,15,0.44
2013-5-16,81,72,62,74,68,60,97,86,72,29.99,29.81,17,2,17,0.41
2013-5-17,90,79,72,76,72,70,94,81,62,29.97,29.85,16,2,16,0.00
2013-5-18,92,79,70,76,72,68,93,79,57,29.98,29.88,15,2,15,0.00
2013-5-20,89,82,77,74,72,71,82,72,59,29.90,29.75,16,4,16,0.00
2013-5-21,88,76,65,75,70,64,96,84,62,29.92,29.69,23,3,23,0.21
2013-5-22,88,72,61,72,64,60,97,81,48,30.00,29.89,6,1,6,0.00
2013-5-23,89,77,67,76,72,65,97,85,61,30.11,29.96,14,1,14,0.00
2013-5-24,88,76,68,76,72,66,97,85,64,30.21,30.05,18,1,18,0.08
2013-5-25,84,75,66,75,70,66,97,85,64,30.21,30.10,12,2,12,0.00
2013-5-26,87,79,73,78,72,68,94,80,61,30.15,30.01,14,3,14,0.07
2013-5-27,90,79,69,73,70,66,95,76,50,30.08,29.89,16,3,16,0.00
2013-5-28,89,80,71,71,69,66,92,71,50,29.97,29.86,17,4,21,0.00
2013-5-29,86,78,72,74,71,69,92,81,67,29.92,29.80,18,4,18,0.00
2013-5-30,89,79,74,76,73,71,90,82,62,29.90,29.78,18,4,18,0.00
2013-5-31,94,83,76,76,74,72,92,77,56,29.92,29.77,16,3,22,0.00
2013-6-1,94,84,77,77,74,72,93,75,52,29.95,29.82,15,2,15,0.08
2013-6-2,85,73,59,74,65,57,96,78,45,30.09,29.95,13,1,13,0.48
2013-6-3,90,73,55,71,62,54,97,74,41,30.05,29.90,9,1,9,0.00
2013-6-4,91,78,64,73,69,62,95,75,52,30.02,29.85,14,2,14,0.00
2013-6-5,93,80,66,74,70,64,96,74,47,29.96,29.75,9,1,9,0.00
2013-6-6,85,74,66,75,70,64,96,88,70,29.97,29.83,9,1,9,0.43
2013-6-7,83,69,62,66,63,58,97,84,44,29.99,29.93,4,0,4,0.01
2013-6-8,90,74,57,68,62,56,97,70,40,30.01,29.86,11,1,11,0.00
2013-6-9,92,79,70,76,71,67,95,78,51,29.99,29.90,9,1,9,0.00
2013-6-10,96,82,67,74,71,66,97,73,41,30.03,29.96,9,1,9,0.00
2013-6-11,95,81,71,76,73,70,96,79,50,30.10,30.01,15,2,15,0.00
2013-6-12,94,80,74,75,73,71,96,80,48,30.07,29.99,9,1,9,0.00
2013-6-13,98,86,73,76,74,71,96,69,45,30.12,29.94,13,2,13,0.00
2013-6-14,98,85,73,77,73,70,91,70,44,30.04,29.92,11,1,11,0.00
2013-6-15,94,81,68,79,74,66,96,80,58,30.05,29.93,13,2,20,0.13
2013-6-16,96,85,75,76,72,68,91,69,41,30.08,29.93,13,2,13,0.00
2013-6-17,94,83,76,77,74,68,92,75,51,30.08,29.89,14,2,14,0.01
2013-6-18,88,79,71,76,73,70,95,83,67,30.02,29.92,9,1,9,0.06
2013-6-19,94,80,67,77,72,66,97,79,50,30.04,29.96,10,1,10,0.00
2013-6-20,97,85,73,76,72,68,95,69,40,30.12,30.00,14,2,14,0.00
2013-6-21,97,84,73,76,72,68,95,69,40,30.14,30.03,12,2,12,0.00
2013-6-22,96,84,72,76,72,68,95,69,43,30.11,29.96,14,3,14,0.00
2013-6-23,98,85,71,75,70,66,93,65,38,30.06,29.94,16,3,16,0.00
2013-6-24,97,85,72,75,72,65,94,68,36,30.10,29.95,15,2,15,0.00
2013-6-25,98,86,74,77,72,68,94,66,39,30.08,29.91,14,3,18,0.00
2013-6-26,100,86,76,74,72,68,89,64,37,30.04,29.92,15,3,15,0.00
2013-6-27,102,87,75,74,70,64,92,62,31,30.09,29.92,12,2,12,0.00
2013-6-28,107,88,73,73,68,62,88,57,25,30.02,29.82,9,1,11,0.00
2013-6-29,103,86,68,74,66,59,94,57,25,29.89,29.80,13,1,13,0.00
2013-6-30,96,80,64,68,60,54,90,55,26,29.95,29.83,14,1,14,0.00
2013-7-1,91,74,58,65,58,55,92,63,31,30.04,29.95,12,1,12,0.00
2013-7-2,93,75,58,65,57,51,96,59,26,30.10,30.01,13,1,13,0.00
2013-7-3,95,76,59,67,59,54,93,60,28,30.10,29.96,12,1,12,0.00
2013-7-4,95,77,63,74,64,59,91,67,36,30.06,29.96,12,1,12,0.06
2013-7-5,98,80,62,70,64,61,97,64,34,30.06,29.91,12,1,12,0.00
2013-7-6,98,82,66,75,66,60,94,62,31,30.02,29.89,13,2,13,0.00
2013-7-7,98,83,68,75,71,65,95,68,40,30.05,29.95,18,2,18,0.00
2013-7-8,94,83,73,78,72,68,93,71,46,30.16,30.04,15,2,15,0.03
2013-7-9,100,86,72,75,70,66,95,63,34,30.19,30.03,13,2,13,0.00
2013-7-10,102,86,74,76,71,66,91,64,32,30.13,29.95,12,2,12,0.00
2013-7-11,103,85,73,73,71,69,90,67,35,30.03,29.93,19,2,19,0.01
2013-7-12,103,85,69,74,70,67,95,65,34,30.02,29.91,10,1,10,0.00
2013-7-13,102,86,69,73,68,59,84,57,30,30.03,29.90,12,2,12,0.00
2013-7-14,78,72,64,72,67,57,97,84,66,30.03,29.91,5,0,5,0.30
2013-7-15,76,71,67,75,70,66,98,97,94,30.14,30.00,7,1,7,0.67
2013-7-16,90,78,71,76,73,70,97,84,58,30.20,30.11,15,2,15,0.05
2013-7-17,78,74,72,75,72,70,96,93,88,30.23,30.18,1,0,1,0.06
2013-7-18,96,82,69,77,72,68,98,77,45,30.22,30.04,6,1,6,0.00
2013-7-19,88,76,70,76,72,68,97,88,62,30.15,29.99,17,1,17,1.29
2013-7-20,94,79,69,76,72,68,98,84,50,30.04,29.92,16,1,17,0.16
2013-7-21,95,81,72,78,74,71,98,80,47,30.01,29.92,14,2,14,0.01
2013-7-22,96,86,76,78,75,73,95,74,50,30.05,29.93,14,2,14,0.00
2013-7-23,98,86,76,77,73,67,92,68,38,30.05,29.89,14,2,14,0.00
2013-7-24,93,83,76,80,75,70,94,77,58,30.06,29.92,13,1,13,0.00
2013-7-25,97,83,72,78,74,71,98,77,50,30.08,30.00,8,1,8,0.00
2013-7-26,94,83,76,77,74,72,92,74,51,30.08,29.89,13,2,13,0.00
2013-7-27,86,77,66,74,71,64,94,82,63,30.04,29.95,9,1,9,0.00
2013-7-28,96,79,64,75,70,63,98,79,48,30.03,29.92,16,2,16,0.00
2013-7-29,98,85,74,77,71,64,96,68,38,30.08,29.98,14,2,16,0.00
2013-7-30,101,86,77,76,70,64,88,62,31,30.16,30.00,16,3,16,0.00
2013-7-31,100,86,75,75,71,65,91,64,39,30.14,29.95,12,2,12,0.00
2013-8-1,104,89,77,74,71,68,84,59,33,30.06,29.92,9,2,9,0.00
2013-8-2,102,88,74,74,71,68,89,60,34,30.01,29.92,11,2,11,0.00
2013-8-3,101,87,74,76,71,63,93,62,31,30.07,29.98,13,2,13,0.00
2013-8-4,101,88,75,77,73,69,93,64,36,30.13,29.96,11,2,11,0.00
2013-8-5,102,89,77,75,71,65,87,58,31,30.08,29.90,13,2,13,0.00
2013-8-6,104,89,76,76,71,64,90,58,29,30.00,29.84,13,2,13,0.00
2013-8-7,104,89,77,75,71,65,88,58,29,29.97,29.82,14,2,14,0.00
2013-8-8,104,88,75,76,70,61,93,59,27,29.95,29.81,14,2,14,0.00
2013-8-9,104,87,73,74,67,54,92,58,20,30.02,29.90,11,1,11,0.00
2013-8-10,106,89,73,82,70,62,87,56,25,30.08,29.95,9,1,9,0.01
2013-8-11,100,92,78,77,72,67,83,55,37,30.13,30.00,11,2,12,0.01
2013-8-12,98,85,73,76,72,69,95,67,40,30.12,29.97,13,2,13,0.00
2013-8-13,103,88,78,75,73,67,86,65,33,30.07,29.91,12,2,12,0.00
2013-8-14,95,81,74,78,74,70,97,80,52,30.05,29.95,12,1,12,0.01
2013-8-15,93,80,69,72,68,64,91,69,44,30.10,29.98,12,1,12,0.00
2013-8-16,94,79,62,72,66,59,92,66,48,30.10,29.97,10,1,10,0.00
2013-8-17,93,76,60,64,60,57,95,62,33,30.12,29.99,13,1,13,0.00
2013-8-18,96,76,57,70,60,55,96,64,29,30.13,30.02,12,1,12,0.00
2013-8-19,98,80,61,70,63,58,93,62,29,30.12,29.97,11,1,11,0.00
2013-8-20,99,82,66,71,64,58,92,58,28,30.09,29.99,13,1,13,0.00
2013-8-21,98,83,66,72,68,64,95,64,35,30.15,30.01,11,1,11,0.00
2013-8-22,100,86,74,75,71,68,88,62,37,30.14,29.97,10,1,10,0.00
2013-8-23,101,86,71,76,70,67,92,64,35,30.08,29.92,11,1,11,0.00
2013-8-24,100,83,70,74,71,67,94,68,37,30.10,29.99,14,1,14,0.00
2013-8-25,98,84,67,73,69,65,95,63,36,30.17,30.07,13,2,13,0.00
2013-8-26,96,80,69,73,71,67,96,74,41,30.21,30.08,19,2,19,0.00
2013-8-27,97,82,71,74,69,60,96,70,31,30.19,30.06,13,1,13,0.00
2013-8-28,98,83,68,75,70,65,95,68,39,30.16,30.02,9,1,9,0.00
2013-8-29,104,93,72,73,68,62,88,48,27,30.11,29.97,11,1,11,0.00
2013-8-30,104,88,77,70,64,61,63,48,26,29.93,29.90,9,1,9,0.00
2013-8-31,104,89,75,74,70,63,90,58,28,29.97,29.83,12,2,12,0.00
2013-9-1,104,88,76,74,71,67,87,60,33,29.95,29.82,11,2,11,0.00
2013-9-2,101,86,74,76,71,67,90,65,39,30.02,29.89,10,1,10,0.00
2013-9-3,105,86,71,75,70,66,93,64,30,30.01,29.88,12,1,12,0.00
2013-9-4,102,86,71,75,71,68,96,65,36,30.09,29.97,12,1,12,0.00
2013-9-5,102,85,70,75,70,66,95,63,32,30.15,30.02,11,1,11,0.00
2013-9-6,102,86,70,75,68,61,94,60,28,30.13,29.97,14,1,14,0.00
2013-9-7,101,82,71,76,70,63,94,70,31,30.09,29.95,20,2,20,0.00
2013-9-8,98,81,65,75,67,63,97,68,34,30.06,29.91,14,1,14,0.00
2013-9-9,98,81,64,73,67,62,97,67,34,30.07,29.96,14,2,14,0.00
2013-9-10,94,79,68,74,68,64,95,72,38,30.15,30.03,13,2,13,0.00
2013-9-11,98,80,68,75,68,64,95,71,35,30.17,30.02,16,1,16,0.00
2013-9-12,99,82,67,74,67,60,96,67,29,30.13,29.95,14,1,14,0.00
2013-9-13,101,82,66,71,66,63,92,63,30,30.01,29.84,11,1,11,0.00
2013-9-14,98,84,74,70,67,64,81,59,35,30.00,29.89,12,2,12,0.00
2013-9-15,97,83,68,72,66,63,85,60,37,30.08,29.98,12,1,12,0.00
2013-9-16,98,83,70,75,68,61,94,64,34,30.13,30.00,11,1,11,0.00
2013-9-17,96,83,68,74,67,63,90,61,38,30.13,29.97,12,1,12,0.00
2013-9-18,97,85,71,73,68,64,86,60,37,30.07,29.92,14,2,14,0.00
2013-9-19,96,82,71,76,72,68,94,74,45,30.03,29.89,24,2,24,0.00
2013-9-20,73,70,70,72,70,69,98,98,98,29.91,29.83,6,1,6,4.94
2013-9-21,85,71,57,70,64,54,98,81,39,29.99,29.87,11,2,11,0.00
2013-9-22,84,66,51,63,54,49,98,73,32,29.99,29.84,14,1,14,0.00
2013-9-23,88,70,55,68,60,53,97,75,39,29.92,29.80,6,1,10,0.00
2013-9-24,94,76,62,71,64,59,97,73,33,29.96,29.86,11,1,11,0.00
2013-9-25,95,73,55,70,57,46,97,65,20,29.95,29.83,8,0,8,0.00
2013-9-26,93,77,59,69,61,54,91,60,35,29.96,29.86,11,1,11,0.00
2013-9-27,88,77,63,75,68,60,93,76,61,30.01,29.91,11,2,11,0.00
2013-9-28,91,76,71,79,72,68,98,87,66,30.05,29.94,12,2,17,1.96
2013-9-29,77,70,66,72,68,65,98,94,77,30.08,29.96,7,1,7,0.04
2013-9-30,86,74,66,73,69,65,98,86,63,29.98,29.86,8,1,8,0.00
2013-10-1,90,79,70,77,73,69,97,84,59,30.00,29.91,9,2,12,0.00
2013-10-2,86,76,72,77,73,70,97,88,68,30.04,29.94,9,2,12,0.29
2013-10-3,90,79,73,76,73,71,97,83,60,30.01,29.89,12,2,12,0.00
2013-10-4,89,78,71,75,72,68,97,82,57,29.98,29.91,12,2,12,0.00
2013-10-5,90,73,57,76,66,48,96,80,53,30.11,29.94,17,2,17,0.00
2013-10-6,77,61,46,56,47,38,94,66,26,30.19,30.07,14,1,14,0.00
2013-10-7,81,59,42,55,46,37,97,69,23,30.23,30.11,19,1,19,0.00
2013-10-8,81,61,44,59,51,42,98,75,37,30.19,30.06,9,1,9,0.00
2013-10-9,82,64,50,62,56,48,97,77,44,30.16,30.05,12,1,12,0.00
2013-10-10,83,69,56,66,61,55,97,78,51,30.14,29.97,12,1,12,0.00
2013-10-11,87,75,64,74,69,63,97,81,62,30.03,29.91,12,2,12,0.00
2013-10-12,83,72,67,77,70,65,96,92,80,30.13,29.96,13,1,13,0.72
2013-10-13,73,70,68,71,69,66,98,95,87,30.24,30.07,11,1,11,0.08
2013-10-14,78,73,69,74,71,68,97,93,83,30.18,30.01,7,2,10,0.00
2013-10-15,82,72,61,74,70,60,98,93,75,30.04,29.94,10,1,10,0.34
2013-10-16,61,57,55,60,56,54,98,98,97,30.13,30.00,10,1,10,1.11
2013-10-17,73,57,48,60,52,47,99,85,52,30.20,30.06,7,0,7,0.00
2013-10-18,71,58,47,59,54,46,98,87,60,30.10,29.98,11,1,11,0.01
2013-10-19,66,54,40,58,46,38,97,77,46,30.26,30.07,32,2,32,0.00
2013-10-20,71,53,36,52,45,36,98,78,46,30.18,30.00,11,1,11,0.00
2013-10-21,79,64,54,70,60,50,96,87,66,30.12,29.98,7,1,8,0.10
2013-10-22,73,59,49,57,51,45,97,79,38,30.21,30.11,10,1,10,0.00
2013-10-23,82,62,45,59,52,44,97,74,37,30.22,30.13,8,0,8,0.00
2013-10-24,82,64,48,62,52,46,96,71,34,30.31,30.16,8,0,8,0.00
2013-10-25,72,59,48,56,51,47,97,78,54,30.46,30.31,12,2,12,0.00
2013-10-26,79,64,52,66,56,46,90,76,60,30.33,30.11,17,2,17,0.13
2013-10-27,69,62,54,64,60,53,98,94,82,30.22,30.07,15,1,15,1.03
2013-10-28,79,68,54,70,64,53,98,89,70,30.19,30.08,9,2,10,0.00
2013-10-29,80,73,67,72,69,66,97,88,76,30.17,30.07,10,2,11,0.00
2013-10-30,71,68,64,69,67,64,99,97,90,30.12,29.87,17,2,17,5.93
2013-10-31,79,64,49,70,50,44,99,68,32,29.96,29.82,14,1,14,0.00
2013-11-1,77,60,46,61,52,45,98,79,44,30.10,29.88,12,1,12,0.01
2013-11-2,69,55,41,54,44,37,96,70,33,30.33,30.10,15,1,15,0.01
2013-11-3,66,46,37,48,23,-100,97,63,48,30.30,30.12,14,2,14,0.00
2013-11-4,63,59,54,62,55,45,96,88,69,30.19,30.09,12,2,12,0.11
2013-11-5,70,66,61,69,65,60,98,96,90,30.13,30.02,11,2,11,0.11
2013-11-6,70,58,44,69,56,43,98,93,80,30.41,30.03,13,2,13,0.01
2013-11-7,64,49,39,48,42,38,97,81,43,30.56,30.41,29,1,29,0.02
2013-11-8,64,52,41,52,46,40,98,81,49,30.47,30.23,11,1,11,0.00
2013-11-9,61,54,53,52,49,48,90,84,72,30.29,30.23,10,1,10,0.00
2013-11-10,69,57,44,58,50,43,97,80,58,30.42,30.31,6,0,6,0.00
2013-11-11,73,54,40,58,49,39,98,84,51,30.37,30.24,13,0,13,0.00
2013-11-12,59,49,35,54,43,30,98,81,64,30.72,30.34,14,2,14,0.01
2013-11-13,54,37,26,36,28,24,95,74,34,30.76,30.49,10,1,10,0.00
2013-11-14,61,45,26,46,37,25,97,76,48,30.49,30.15,14,2,14,0.00
2013-11-15,74,60,49,62,54,43,95,82,64,30.15,29.94,14,2,14,0.02
2013-11-16,77,70,63,71,67,62,96,90,80,29.99,29.79,19,3,19,0.00
2013-11-17,86,75,63,73,69,61,96,83,58,30.01,29.81,16,2,16,0.00
2013-11-18,76,64,56,63,46,40,97,55,31,30.23,30.01,14,1,14,0.00
2013-11-19,68,58,50,44,40,34,72,53,33,30.26,30.11,18,2,18,0.00
2013-11-20,63,54,38,56,45,36,95,74,58,30.13,30.01,10,2,10,0.01
2013-11-21,74,68,61,71,66,56,98,93,82,30.13,30.04,10,2,10,0.39
2013-11-22,71,42,37,70,41,36,97,96,85,30.46,30.10,17,3,17,0.68
2013-11-23,43,40,38,42,40,36,98,96,93,30.59,30.45,13,2,13,1.39
2013-11-24,43,37,34,36,31,27,95,82,55,30.63,30.44,12,1,12,0.11
2013-11-25,38,36,34,37,35,33,97,96,90,30.45,30.21,8,1,8,0.81
2013-11-26,45,39,36,40,36,32,97,89,71,30.41,30.18,14,2,14,0.03
2013-11-27,46,35,25,32,26,22,96,71,44,30.56,30.40,14,1,14,0.03
2013-11-28,54,36,26,35,29,24,96,79,41,30.58,30.47,11,1,11,0.00
2013-11-29,58,41,26,42,34,25,97,78,44,30.63,30.46,8,1,8,0.01
2013-11-30,62,52,37,52,45,33,86,76,62,30.48,30.26,12,2,12,0.00
2013-12-1,70,61,55,60,56,50,95,83,69,30.28,29.97,12,2,12,0.00
2013-12-2,72,56,46,62,52,44,98,87,43,29.98,29.73,7,0,7,0.00
2013-12-3,81,61,42,61,52,41,98,76,29,29.73,29.62,6,1,12,0.01
2013-12-4,79,68,61,66,63,60,97,84,60,29.82,29.71,15,3,15,0.00
2013-12-5,70,44,32,67,41,29,95,90,75,30.20,29.85,10,2,13,0.05
2013-12-6,34,31,27,33,29,24,96,93,87,30.56,30.14,14,2,14,0.03
2013-12-7,31,29,27,30,26,24,96,91,87,30.58,30.38,7,2,12,0.03
2013-12-8,39,35,31,38,34,30,96,94,88,30.40,30.15,5,0,5,0.01
2013-12-9,38,36,31,37,35,29,97,96,94,30.47,30.19,12,1,12,0.08
2013-12-10,42,30,22,30,25,20,95,82,57,30.61,30.46,20,1,20,0.08
2013-12-11,52,35,22,38,30,21,96,83,46,30.65,30.44,15,0,15,0.00
2013-12-12,53,37,24,40,31,22,96,81,43,30.70,30.43,25,0,25,0.01
2013-12-13,46,41,37,46,38,33,98,90,78,30.43,29.93,10,1,10,0.76
2013-12-14,49,43,33,48,41,30,98,91,79,30.40,29.90,15,2,15,0.76
2013-12-15,56,38,24,40,32,23,96,81,47,30.48,30.35,7,0,7,0.00
2013-12-16,64,47,31,42,36,28,93,69,35,30.40,30.27,11,1,11,0.00
2013-12-17,71,49,34,49,39,31,95,72,35,30.39,30.30,5,0,8,0.00
2013-12-18,69,52,34,51,42,33,97,73,36,30.38,30.15,12,2,12,0.00
2013-12-19,75,63,51,64,58,49,95,84,63,30.15,29.87,17,4,17,0.00
2013-12-20,73,70,68,69,66,64,95,89,81,29.93,29.76,16,3,16,0.09
2013-12-21,70,49,40,69,48,39,98,97,82,29.89,29.63,10,1,10,0.41
2013-12-22,52,41,32,51,38,29,98,89,69,30.44,29.87,13,2,13,0.41
2013-12-23,48,33,25,36,29,24,96,84,59,30.64,30.44,9,1,9,0.00
2013-12-24,54,38,22,37,29,20,96,74,43,30.65,30.40,12,2,12,0.01
2013-12-25,57,43,28,46,38,25,96,81,62,30.47,30.38,10,1,10,0.00
2013-12-26,57,42,32,43,37,30,97,85,56,30.53,30.40,7,0,7,0.00
2013-12-27,58,42,30,45,37,29,98,85,58,30.54,30.42,6,0,9,0.00
2013-12-28,60,45,30,49,35,29,97,71,40,30.42,30.09,9,1,9,0.00
2013-12-29,58,44,32,49,37,29,91,77,65,30.34,30.05,15,1,15,0.00
2013-12-30,40,34,28,30,28,26,94,79,64,30.51,30.31,10,1,10,0.00
2013-12-31,52,38,26,34,29,25,96,74,39,30.56,30.34,12,1,12,0.00
2014-1-1,66,49,30,53,43,28,94,80,60,30.34,30.04,16,3,16,0.00
2014-1-2,53,35,24,40,25,21,90,68,46,30.56,30.18,22,2,22,0.00